Hlavní strana
METAR-TAF:

METAR-TAF

Letiště :

Lycksele, Švédsko

zeměpisná šířka: 64-32-51N, zeměpisná délka: 018-43-03E, výška: 211 m

Aktuální stav počasí

Zpráva byla vytvořena před 9 minutami, v 02:50 UTC
Jihovýchodní vítr 4 kt, proměnlivý mezi východojihovýchodním a jižním
Teplota 7°C
Vlhkost vzduchu 100%
Tlak 1004 hPa
Viditelnost 10 km a více

METAR: ESNL 200250Z AUTO 13004KT 110V170 9999 NCD 07/07 Q1004

Čas: 04:59 (02:59 UTC)


TAF: chybějící

Stav a předpovědi počasí z více než 4 000 letišť (zprávy METAR a TAF).

Červené a žluté tečky na mapě představují dostupné meteorologické stanice.

Když kurzor umístíte na tečku, zobrazí se název stanice.

Pak kliknutím zobrazíte stav a předpověď počasí.

Chcete-li změnit mapu, kliknutím na zelené tlačítko se znaménkem +mapu přiblížíte, kliknutím na zelené tlačítko se znaménkem – mapu oddálíte a kliknutím na zelené šipky přejdete na sousední mapy.


METAR-TAF: